Vorticity
14 13 11 10 9 9 9 8 8 8 9 9 8 10 12 13 14 12 11 10 9 8 7 7 7 7 8 8 8 7 6 5 4 4 7 7 3 2 4 4 5 5 6 8 10 13 16 17 16 12 6 5 7 6 6 7 7 8 9 10 14 14 9 5 6 7 8 8 9 13 8 5 5 2 9 8 0 3 2 3 7 5 6 10 7 2 5 10
14 15 15 13 11 10 9 9 8 8 9 9 8 7 8 10 12 13 13 12 12 12 10 8 7 7 7 7 8 8 7 7 5 4 7 7 4 4 4 2 4 5 5 6 7 9 13 16 18 18 11 6 5 5 6 6 6 9 8 11 14 12 7 4 6 6 9 6 1 11 4 -3 4 2 8 10 2 7 9 8 6 6 12 14 10 4 4 7
9 12 15 16 15 13 11 9 9 9 8 9 9 8 7 8 9 11 12 13 13 13 13 12 10 8 7 7 7 8 8 8 7 4 5 6 5 6 4 2 3 3 4 5 5 7 9 12 16 19 17 11 6 5 6 6 7 7 8 14 13 8 8 8 8 6 7 -1 -7 11 10 -2 1 -1 5 7 0 4 10 12 9 7 10 11 11 9 6 6
6 7 9 13 16 17 15 12 10 10 9 9 9 9 8 8 7 8 9 10 12 13 14 13 13 11 9 8 7 7 7 8 8 5 5 6 5 6 5 4 3 2 3 4 5 6 6 9 13 17 20 16 9 6 5 7 7 5 13 17 10 10 12 10 7 5 8 -2 -11 6 14 9 6 1 3 4 4 7 8 9 7 5 5 7 10 8 5 4
7 6 5 7 10 15 17 16 13 10 10 10 9 9 9 9 8 7 7 7 8 10 12 13 14 14 11 10 8 8 7 7 7 5 6 6 4 6 6 5 4 3 2 3 4 5 6 7 9 13 19 19 15 9 5 7 6 7 14 3 -1 10 10 9 9 8 11 2 -9 -1 10 12 5 4 7 3 4 7 10 7 2 4 3 4 7 5 3 1
9 8 6 4 4 8 12 17 18 15 12 10 10 10 9 10 10 10 8 7 6 7 9 10 12 13 14 12 10 9 7 7 7 6 7 6 4 5 6 5 5 4 3 4 4 4 6 5 7 10 14 19 19 12 6 7 5 7 9 -2 1 11 5 8 11 8 10 6 -1 -2 3 7 4 6 7 2 2 3 10 14 7 5 3 1 4 3 1 0
8 10 10 8 5 4 5 10 15 18 16 13 11 11 10 10 10 11 11 9 8 7 7 7 8 11 13 13 13 11 9 8 7 7 8 8 6 5 5 5 5 5 5 5 4 4 5 4 7 8 10 19 21 15 9 7 6 5 5 5 7 7 3 7 8 8 7 4 1 -3 -1 1 2 5 3 1 5 2 3 13 11 4 4 5 6 5 3 4
5 7 9 11 10 7 4 4 7 12 17 17 14 11 10 10 10 10 11 11 11 9 9 7 7 8 9 12 13 13 12 12 9 8 8 8 7 6 5 5 5 6 6 5 4 3 3 3 5 6 9 16 19 16 11 7 7 5 4 7 8 5 6 6 6 10 7 1 -2 -1 4 3 2 5 2 3 10 7 0 4 8 3 2 5 9 10 6 6
4 5 5 7 11 11 9 5 4 5 9 15 17 16 12 10 10 9 9 10 11 11 11 10 9 8 8 9 11 14 16 13 10 7 6 6 6 6 6 5 4 5 5 5 4 3 3 4 4 5 8 12 16 16 12 9 6 5 6 7 11 9 5 4 5 8 7 3 3 9 11 3 8 15 5 3 10 13 8 3 6 6 4 2 4 7 7 8
6 5 4 3 5 9 12 10 8 5 3 6 12 17 16 13 11 10 9 8 9 11 12 12 11 10 10 8 9 14 13 11 10 8 6 5 4 5 5 5 4 4 5 5 5 5 4 5 4 4 5 9 14 13 13 14 6 5 6 2 8 10 3 3 5 6 6 4 6 18 17 -1 7 21 11 3 4 8 11 8 7 9 8 5 1 3 7 8
9 7 5 4 2 3 8 11 12 9 6 3 4 9 14 16 14 12 12 9 8 9 10 12 11 11 12 10 12 14 10 9 13 12 11 10 8 6 5 4 4 4 4 5 6 5 4 3 3 3 4 7 11 10 15 18 8 5 6 2 5 7 4 4 4 5 6 7 5 11 18 7 3 12 10 3 1 4 8 10 9 8 7 6 2 2 3 1
12 10 7 6 3 1 2 6 10 12 11 8 4 4 7 12 13 13 13 13 11 8 8 9 10 11 11 12 16 14 8 10 12 11 11 11 11 10 9 7 4 4 4 4 6 6 5 3 2 3 4 6 8 10 15 16 11 7 6 4 4 5 4 4 4 4 5 13 14 6 12 16 6 6 11 7 4 3 4 5 7 9 12 10 6 5 3 2
11 12 11 8 5 3 1 1 4 8 12 12 9 5 4 6 10 11 10 12 13 12 11 8 8 10 11 15 18 13 9 10 11 12 11 10 11 10 11 12 7 5 4 4 6 5 5 4 3 4 4 4 6 9 14 15 14 10 6 4 5 5 4 4 3 3 5 10 15 10 13 19 8 4 14 12 7 5 3 4 5 5 11 13 8 8 9 9
9 11 12 11 8 5 2 1 2 3 6 10 13 11 6 4 6 9 8 8 9 12 14 11 9 8 8 13 14 11 11 10 9 13 13 11 11 9 8 12 10 7 6 5 5 5 5 4 3 3 2 4 4 7 10 12 15 14 9 4 4 5 4 6 2 3 8 6 9 11 14 19 11 9 18 14 8 6 5 10 10 2 3 7 5 3 5 8
7 8 10 12 11 9 5 2 2 2 2 4 9 12 11 8 5 5 7 7 6 6 10 12 13 10 9 11 11 10 12 11 10 13 15 12 12 12 9 9 11 10 8 6 5 5 5 3 4 3 3 4 3 6 8 10 13 14 13 8 4 4 4 6 4 4 9 11 11 9 18 26 15 14 21 13 8 7 5 9 10 6 5 6 2 -2 -1 1
4 5 7 9 11 12 9 6 3 2 2 2 5 8 11 14 10 5 6 7 6 5 5 8 12 13 10 9 9 10 11 13 12 10 14 16 13 15 13 8 9 10 9 8 7 6 4 2 4 5 4 2 1 4 6 9 13 11 14 14 7 5 5 7 10 8 7 13 11 9 30 31 7 7 15 11 10 5 -1 0 4 6 5 4 4 3 3 3
8 4 4 5 8 11 11 9 6 4 3 1 3 4 6 12 15 11 7 6 7 6 4 3 7 11 11 8 9 13 12 12 12 10 14 18 15 13 12 10 8 8 9 10 7 6 5 4 6 5 3 3 2 3 2 7 12 11 13 16 12 8 5 6 11 10 7 11 10 16 34 16 -6 6 10 9 13 6 0 2 5 5 4 9 11 11 11 11
22 12 6 5 5 7 10 11 9 7 5 3 3 3 3 7 13 15 11 8 7 7 5 4 5 8 10 10 10 10 8 8 10 9 11 15 14 11 10 9 8 6 7 9 7 5 4 4 5 5 4 3 3 3 2 6 9 10 14 16 16 13 7 4 8 11 12 14 13 24 31 4 -7 6 4 8 10 6 7 5 7 8 8 11 8 8 10 10
33 26 16 9 6 4 6 9 10 9 6 5 4 2 3 4 7 13 16 12 7 7 7 5 5 6 7 10 9 5 6 7 6 7 9 13 13 11 10 10 9 6 5 6 6 6 4 3 1 -0 3 3 3 5 5 7 7 9 14 15 19 17 10 6 7 9 14 25 22 20 23 2 -8 -1 2 11 8 4 9 4 6 9 8 9 5 6 7 4
35 34 27 19 12 7 5 6 8 9 8 7 6 3 3 4 5 8 15 16 10 9 10 6 6 8 7 9 9 9 9 8 9 10 8 9 11 11 10 8 9 8 7 7 6 8 6 4 0 -0 5 4 4 5 6 8 6 9 13 14 17 13 9 9 10 9 9 25 20 6 15 3 -13 -4 4 9 9 8 11 5 3 3 3 7 6 8 10 11
33 34 33 28 20 13 8 5 5 7 8 8 8 6 3 4 6 5 9 15 14 11 12 7 6 11 9 9 11 10 10 6 9 13 11 9 8 9 8 7 8 7 9 10 7 7 5 3 4 5 8 6 4 4 5 7 5 8 10 7 11 9 7 6 11 16 10 18 15 -4 10 7 -12 -4 2 6 11 9 10 6 2 3 3 1 4 14 20 19
35 34 34 31 27 21 14 9 6 5 6 7 8 7 6 5 5 4 5 10 15 14 11 6 7 16 12 9 12 10 11 10 8 11 13 12 8 9 10 7 9 8 8 9 6 5 4 4 6 7 7 5 5 3 3 6 4 7 7 5 11 9 4 1 10 21 8 12 17 -3 4 9 -4 -0 2 2 7 6 8 4 0 8 7 3 9 15 13 14
37 35 35 33 30 27 22 16 10 6 4 4 7 7 7 7 4 5 6 7 13 15 12 7 7 17 15 10 12 11 12 13 11 11 12 12 11 12 11 9 10 9 7 6 7 7 6 8 8 5 6 5 4 4 3 6 6 5 5 7 15 11 2 2 12 14 -0 6 17 3 2 2 -5 2 4 3 4 5 8 4 1 7 7 9 10 -3 -6 8
41 35 34 37 33 28 26 22 17 12 7 4 5 6 7 8 7 6 6 5 10 14 13 8 5 12 15 11 12 11 12 12 9 10 9 11 14 14 12 14 12 8 8 9 8 9 7 9 10 6 6 5 4 6 5 6 5 4 5 8 16 16 9 7 8 5 -2 4 11 9 7 -1 -6 0 -2 -2 3 6 8 9 8 6 5 8 1 -10 -5 11
42 36 30 37 39 33 29 28 25 18 12 6 3 5 6 7 8 6 6 5 8 12 11 9 11 16 14 8 10 11 10 11 11 9 8 10 13 14 14 15 12 9 10 10 8 9 7 7 10 8 7 7 5 6 6 7 5 4 5 8 19 25 15 4 0 2 4 2 1 6 7 -2 1 9 4 0 4 5 6 8 8 6 7 8 5 6 9 6
40 38 27 33 41 38 34 32 33 25 16 13 7 5 6 6 9 7 5 4 6 13 13 9 12 14 12 8 12 15 10 10 13 11 10 10 10 14 16 13 13 14 12 10 9 8 7 6 8 9 9 9 7 4 6 6 4 4 3 12 29 30 12 -3 -4 3 7 3 1 4 5 -2 -2 7 11 9 9 9 5 5 7 5 7 8 11 18 14 2
36 38 32 33 32 33 38 32 33 31 22 20 14 7 7 6 7 7 6 5 6 12 13 12 11 10 12 11 10 14 14 13 14 12 11 12 12 11 13 13 15 16 11 7 7 7 9 7 7 10 9 8 6 3 6 6 3 5 7 16 26 17 -1 -6 -2 2 2 4 8 4 3 4 -2 -4 1 6 12 14 10 8 5 2 3 3 6 7 1 -1
29 31 35 32 21 22 35 33 32 32 26 27 21 12 9 6 5 7 6 6 9 13 12 14 16 11 11 11 8 10 14 16 17 16 12 11 14 12 11 13 13 16 14 7 6 9 12 10 7 10 9 8 7 5 8 7 4 7 11 17 12 -4 -5 2 2 1 -4 -4 8 9 0 0 -1 -5 -1 8 18 20 14 10 6 6 7 3 2 -1 -6 -2
30 28 30 24 19 18 22 26 31 29 28 32 25 16 14 10 7 5 5 7 12 18 14 11 14 12 8 8 10 10 10 13 15 17 14 10 13 13 13 15 13 13 14 11 10 8 10 13 11 11 11 10 8 7 9 8 7 8 11 20 10 -11 1 18 10 10 8 -7 2 11 -2 -4 1 0 4 11 14 16 15 10 6 8 9 7 5 2 1 6
31 27 28 17 14 14 9 18 30 27 31 36 27 20 17 12 9 7 7 7 10 15 14 13 16 16 14 10 11 11 9 11 12 13 13 11 13 13 13 17 15 11 11 11 11 8 9 13 13 12 9 9 9 9 10 7 8 9 9 19 14 -10 -1 22 18 15 12 -5 1 9 -5 -3 7 3 6 8 -2 -2 2 2 3 4 7 10 12 9 8 6
25 17 15 6 4 12 11 19 28 25 30 36 29 24 19 13 11 9 11 11 14 21 20 21 21 14 13 14 14 15 12 9 11 12 11 8 9 10 10 11 13 11 9 8 9 7 7 8 10 11 8 7 9 8 10 8 6 9 11 16 16 -3 -10 6 13 10 2 -9 -0 9 -5 -5 4 -0 4 6 -4 -5 -1 2 5 2 1 6 8 8 6 -1
24 18 8 5 8 12 14 21 24 17 22 33 32 27 19 15 14 12 16 16 13 18 15 13 20 17 13 13 13 19 21 16 11 11 13 11 8 8 9 9 10 10 8 9 10 8 7 8 10 11 9 8 8 7 8 8 6 8 13 13 11 2 -10 -6 6 8 3 -5 -1 11 6 -1 -0 -1 1 1 1 6 8 6 6 1 -1 4 5 1 -3 -3
22 16 5 13 13 8 18 30 22 8 17 30 31 28 18 17 23 18 17 14 3 8 13 8 13 19 15 10 8 11 17 19 16 12 13 14 12 9 9 10 11 11 12 12 10 7 7 8 8 7 8 8 8 8 6 6 6 5 11 13 5 1 -6 -5 7 6 -1 -1 6 16 11 -0 -3 -3 0 5 5 8 6 1 4 9 11 14 15 9 3 4
20 14 7 14 13 17 32 32 12 3 19 28 27 30 21 15 23 17 14 16 5 7 18 12 5 9 11 11 10 10 10 15 17 14 13 13 12 9 6 7 9 11 13 12 10 9 6 5 5 6 7 7 8 9 7 10 10 5 13 13 1 2 1 -3 8 8 1 5 13 18 6 -7 -5 -3 -2 6 9 7 3 -0 8 18 19 17 16 13 9 9
15 13 12 12 13 29 35 17 1 2 19 31 31 29 20 16 19 15 14 18 10 5 13 17 11 7 8 9 10 14 13 13 14 15 15 14 13 12 10 8 9 10 10 10 11 12 9 7 10 11 9 7 9 10 8 10 11 10 14 8 -2 6 5 -3 5 9 8 8 5 7 1 -7 -0 4 -1 1 7 5 -1 4 18 18 10 12 13 12 13 13
16 12 15 15 22 36 26 3 -3 2 15 34 37 24 16 22 23 17 16 15 11 7 8 15 18 11 8 7 6 10 12 12 12 12 14 16 15 16 14 10 9 10 10 10 12 12 12 10 10 12 13 8 5 8 9 7 9 12 10 5 9 13 1 -5 2 4 4 4 -4 -5 -5 -6 2 4 -0 -1 -0 0 -1 3 12 6 3 12 13 11 14 12
16 18 20 26 41 37 8 -8 0 14 28 38 32 18 14 22 22 16 16 13 11 11 8 10 13 10 10 10 8 9 10 9 9 10 11 15 16 14 14 12 10 10 11 12 12 11 12 13 10 10 16 15 6 7 15 12 8 12 11 11 18 16 4 -2 -1 -0 0 -0 -0 -1 -7 -4 3 -0 -3 -0 -1 4 9 7 3 2 8 15 11 7 9 9
17 26 34 41 48 21 -10 -2 15 25 37 32 14 5 7 13 14 12 14 13 11 12 11 9 10 8 9 15 17 12 9 9 9 11 10 11 16 16 13 12 11 10 11 12 12 11 11 15 15 9 12 21 14 3 10 14 7 8 15 19 15 10 11 6 -5 -3 -0 -3 2 7 4 2 4 3 5 12 12 7 6 1 -3 -1 4 6 6 5 5 7
32 40 41 31 22 4 -1 12 18 28 35 16 -3 1 7 8 9 10 11 13 15 14 12 10 12 11 6 12 21 16 13 14 11 11 11 9 14 16 13 12 11 10 10 12 13 12 11 12 17 14 10 19 20 6 3 10 10 5 7 16 16 10 14 15 4 -1 -2 -3 1 4 6 5 5 9 9 7 6 1 -2 -0 -1 -1 2 2 3 3 2 3
49 33 14 -1 -2 8 14 11 19 36 21 -9 -4 15 12 3 6 10 9 12 15 15 18 16 15 16 9 8 15 15 16 18 13 12 13 12 12 14 15 13 11 11 10 11 14 14 12 10 13 17 9 5 12 12 8 9 11 9 4 8 13 12 11 15 14 9 3 3 3 -3 -1 5 5 6 1 -7 -6 -3 1 4 3 3 7 6 2 1 0 2
36 8 -7 -5 4 9 11 19 32 23 -12 -15 18 28 9 2 8 10 8 10 10 11 20 23 17 17 14 8 11 14 15 15 14 14 13 13 13 12 14 13 11 14 11 9 13 12 11 8 7 13 10 2 7 14 14 11 11 14 13 9 10 12 10 6 7 12 11 10 7 -2 -3 3 3 1 -2 -4 -4 -2 1 3 3 4 3 -1 -1 0 1 4
1 -8 -4 -0 7 19 34 41 23 -11 -18 13 30 16 6 6 5 5 5 7 7 6 13 20 18 17 13 6 8 13 12 10 12 13 10 13 15 13 15 15 13 16 14 8 11 16 18 12 4 8 12 9 8 8 8 14 15 14 17 17 14 13 10 4 2 6 14 17 13 3 -5 -6 -4 -4 -4 -3 -2 -1 1 -0 0 1 1 3 6 6 7 11
-6 -7 5 10 26 46 44 21 -4 -11 12 28 12 4 19 14 -1 3 7 5 5 3 5 10 11 16 16 9 9 13 11 9 11 11 10 11 13 15 19 18 15 18 16 9 11 19 21 10 -3 1 15 15 6 4 6 13 17 13 15 19 18 17 15 8 1 1 9 17 18 14 7 2 3 3 2 3 4 5 6 6 9 10 11 13 12 9 11 15
29 22 29 37 44 38 10 -10 -3 8 12 9 2 14 30 11 -8 3 12 9 4 -5 -0 10 8 12 18 10 9 16 13 10 11 11 10 10 12 17 20 22 23 20 16 10 10 12 12 7 -6 -7 14 20 7 5 8 9 12 13 15 15 13 21 24 9 -1 0 3 7 9 12 12 10 11 12 10 11 13 15 17 20 22 21 18 15 10 7 7 7
44 38 39 38 26 8 -8 -8 3 4 3 8 15 29 27 -6 -17 9 20 9 1 -6 -1 11 10 12 17 7 8 19 19 14 12 8 7 8 12 14 14 23 28 22 19 15 11 13 13 12 3 -9 0 10 1 0 8 11 11 12 15 14 9 20 27 9 -0 5 5 6 8 6 7 6 7 10 11 14 16 16 15 14 15 17 19 19 17 15 12 6
31 26 26 18 3 -6 -8 -7 -3 8 21 18 19 33 19 -18 -13 21 21 1 -0 -0 -2 7 13 15 13 6 7 16 20 18 11 8 11 11 14 13 10 23 31 24 24 16 4 12 13 9 10 -2 -6 7 5 -1 4 10 13 14 17 16 7 12 19 9 2 4 4 7 8 4 3 4 5 8 9 9 10 9 7 6 7 11 14 15 16 20 24 22
17 10 6 -2 -8 -9 -7 -2 6 22 29 11 12 28 5 -16 7 24 11 2 4 2 -3 2 12 13 9 7 6 9 16 19 13 13 16 11 11 10 8 25 36 29 29 15 -4 6 11 5 12 6 -4 9 15 8 7 7 12 21 23 16 7 9 15 10 5 3 -1 1 3 5 8 6 5 5 3 6 12 14 14 13 9 8 7 6 6 9 14 19
-2 -2 -1 -3 2 3 3 14 16 20 22 3 7 23 0 -8 20 19 2 2 2 3 10 9 9 11 9 7 6 12 22 21 14 15 14 5 3 3 3 18 33 36 33 13 -9 0 9 5 10 6 1 10 12 9 13 9 8 20 26 18 7 5 9 10 8 6 -0 -4 -3 1 4 1 1 3 5 14 20 16 13 10 5 7 10 8 7 8 8 12
-7 -2 1 2 13 11 8 19 16 17 24 3 -1 21 8 -8 10 19 12 0 -6 9 21 13 8 10 8 6 9 19 25 15 7 8 5 1 1 3 4 9 24 41 37 9 -7 0 3 1 3 0 4 13 7 -0 5 6 6 16 26 24 11 -1 0 5 7 7 4 2 1 1 2 5 7 8 8 12 12 8 6 3 1 9 16 14 12 12 9 9
-4 -1 -2 1 13 13 6 9 9 13 22 10 7 23 13 -8 -0 20 23 1 -10 13 24 10 7 10 5 4 11 21 18 3 1 4 0 2 6 7 6 4 19 43 33 2 -2 3 -2 0 9 3 1 11 12 4 3 7 9 13 22 27 19 6 4 5 4 5 7 7 7 7 9 11 13 13 10 6 5 4 3 2 3 6 9 10 10 7 4 4
6 -1 -5 -6 1 9 4 0 4 6 3 5 21 29 16 6 4 12 24 8 -15 3 22 13 8 9 3 4 14 23 12 -5 -1 4 -2 1 10 9 4 4 21 40 25 -2 1 8 -2 -0 12 7 -4 2 12 9 4 6 8 9 17 24 19 11 9 8 3 1 3 5 5 8 12 12 9 8 6 4 6 6 4 7 8 3 1 6 10 11 10 9
15 5 2 0 2 12 10 -0 5 11 -3 -8 9 16 14 19 13 4 19 20 -6 -7 13 15 11 10 4 6 18 21 7 -6 -0 4 -4 1 15 13 5 9 24 33 19 -2 -1 9 4 -1 8 9 -1 -2 5 3 0 3 4 4 9 18 21 14 7 6 4 -2 -1 7 9 7 8 8 6 5 2 2 5 6 6 10 11 7 5 6 9 13 13 9
Height
5712 5712 5713 5713 5714 5715 5716 5717 5719 5720 5722 5724 5726 5727 5729 5731 5733 5735 5738 5740 5743 5745 5748 5751 5753 5756 5759 5762 5765 5768 5771 5773 5776 5781 5784 5784 5785 5788 5791 5792 5793 5794 5796 5798 5799 5800 5802 5803 5805 5808 5811 5814 5815 5817 5819 5820 5822 5824 5827 5831 5833 5833 5834 5834 5835 5837 5838 5839 5840 5841 5843 5843 5844 5846 5847 5848 5849 5850 5852 5851 5851 5853 5854 5855 5856 5857 5858 5860
5707 5707 5707 5707 5708 5709 5710 5711 5713 5714 5716 5718 5720 5722 5724 5726 5728 5730 5732 5734 5737 5739 5742 5745 5748 5751 5754 5757 5760 5763 5766 5769 5772 5778 5780 5779 5781 5785 5787 5789 5790 5791 5794 5795 5796 5798 5799 5800 5802 5805 5807 5810 5812 5814 5816 5817 5820 5823 5826 5828 5829 5829 5830 5831 5833 5834 5835 5835 5837 5838 5841 5842 5842 5844 5845 5847 5848 5849 5850 5850 5851 5852 5853 5854 5855 5856 5857 5859
5702 5701 5701 5702 5702 5703 5704 5705 5706 5708 5710 5712 5714 5716 5718 5720 5722 5724 5726 5729 5731 5734 5737 5740 5743 5746 5749 5752 5755 5758 5761 5764 5768 5774 5774 5773 5777 5781 5783 5785 5787 5789 5791 5793 5794 5795 5796 5798 5800 5802 5804 5806 5809 5811 5813 5815 5818 5821 5824 5825 5824 5826 5828 5828 5830 5831 5832 5832 5834 5836 5838 5841 5841 5841 5843 5844 5846 5846 5847 5849 5850 5851 5852 5853 5853 5854 5856 5858
5696 5696 5696 5696 5697 5697 5698 5699 5701 5702 5704 5706 5708 5710 5712 5714 5716 5719 5721 5723 5725 5728 5731 5734 5737 5740 5743 5747 5750 5754 5756 5759 5764 5768 5768 5769 5774 5777 5780 5782 5784 5786 5788 5790 5791 5793 5794 5796 5798 5799 5801 5803 5806 5808 5811 5813 5816 5819 5822 5821 5821 5824 5825 5825 5827 5828 5829 5829 5831 5833 5836 5839 5839 5839 5841 5842 5843 5844 5845 5846 5848 5849 5850 5851 5852 5853 5855 5857
5691 5691 5691 5691 5691 5692 5692 5693 5695 5696 5698 5700 5702 5704 5706 5708 5710 5713 5715 5718 5720 5723 5725 5728 5731 5735 5738 5741 5745 5748 5751 5754 5759 5762 5763 5765 5770 5774 5776 5778 5780 5783 5785 5787 5789 5791 5792 5794 5795 5797 5798 5800 5803 5806 5809 5811 5814 5818 5818 5816 5818 5820 5821 5823 5825 5826 5827 5827 5829 5831 5833 5836 5837 5837 5840 5840 5841 5843 5843 5845 5846 5848 5849 5850 5851 5852 5854 5856
5685 5685 5685 5685 5686 5686 5687 5688 5689 5690 5692 5694 5696 5698 5700 5702 5704 5707 5710 5712 5715 5718 5720 5723 5726 5730 5733 5736 5740 5743 5746 5749 5754 5757 5758 5761 5766 5769 5772 5774 5777 5780 5782 5785 5786 5788 5790 5791 5793 5795 5796 5797 5800 5803 5807 5809 5811 5815 5815 5814 5816 5817 5818 5820 5822 5823 5824 5826 5828 5829 5831 5833 5835 5836 5838 5839 5840 5841 5842 5843 5845 5846 5847 5849 5850 5852 5853 5854
5679 5679 5679 5680 5680 5681 5681 5682 5683 5684 5686 5688 5690 5691 5694 5696 5698 5701 5704 5707 5710 5712 5715 5718 5721 5725 5727 5731 5735 5738 5741 5745 5749 5753 5755 5757 5761 5765 5767 5770 5774 5776 5779 5782 5784 5786 5787 5789 5791 5792 5793 5795 5798 5801 5804 5806 5809 5812 5812 5813 5814 5814 5816 5817 5818 5820 5822 5824 5826 5828 5829 5831 5833 5835 5836 5837 5838 5839 5841 5842 5843 5844 5846 5847 5849 5850 5851 5852
5673 5673 5673 5674 5674 5675 5675 5677 5678 5679 5680 5682 5684 5685 5687 5690 5692 5695 5698 5701 5704 5707 5710 5713 5716 5720 5722 5726 5729 5733 5738 5741 5743 5748 5751 5753 5757 5760 5763 5767 5770 5773 5776 5778 5781 5782 5784 5787 5789 5790 5792 5794 5796 5798 5800 5803 5806 5810 5811 5811 5812 5812 5813 5814 5816 5818 5819 5822 5824 5826 5828 5828 5831 5833 5834 5835 5836 5837 5838 5840 5841 5843 5844 5846 5848 5849 5850 5850
5665 5666 5666 5667 5668 5668 5669 5670 5672 5673 5675 5676 5678 5680 5681 5683 5686 5689 5692 5695 5698 5702 5705 5708 5711 5714 5717 5721 5724 5729 5733 5735 5737 5741 5745 5747 5751 5755 5759 5762 5766 5769 5772 5775 5777 5779 5782 5785 5786 5788 5789 5791 5792 5794 5796 5799 5804 5807 5808 5809 5810 5811 5811 5812 5814 5816 5818 5821 5823 5825 5826 5826 5829 5831 5832 5834 5835 5834 5836 5837 5839 5842 5844 5845 5846 5847 5848 5848
5657 5658 5659 5660 5661 5662 5663 5664 5666 5667 5669 5671 5672 5674 5676 5678 5680 5683 5686 5690 5693 5696 5699 5703 5706 5709 5713 5716 5720 5724 5726 5727 5731 5735 5739 5742 5746 5750 5754 5758 5761 5765 5768 5771 5774 5777 5780 5782 5783 5785 5786 5787 5789 5791 5793 5796 5801 5803 5803 5804 5806 5807 5808 5809 5811 5812 5816 5819 5821 5824 5825 5824 5827 5829 5830 5832 5833 5832 5833 5834 5837 5840 5842 5843 5844 5845 5846 5846
5648 5649 5650 5652 5654 5655 5657 5658 5659 5661 5663 5665 5667 5668 5670 5672 5675 5678 5681 5684 5688 5691 5694 5698 5701 5704 5708 5711 5716 5718 5720 5722 5726 5731 5736 5739 5742 5745 5749 5753 5757 5761 5764 5767 5771 5774 5777 5778 5779 5781 5783 5785 5787 5789 5791 5794 5799 5800 5800 5801 5802 5803 5804 5806 5807 5809 5814 5818 5820 5822 5824 5823 5824 5826 5827 5829 5831 5831 5831 5833 5835 5838 5840 5842 5843 5844 5844 5845
5638 5640 5641 5643 5646 5648 5650 5651 5653 5655 5657 5659 5661 5663 5665 5667 5669 5672 5675 5678 5682 5685 5689 5692 5696 5700 5703 5707 5711 5711 5714 5717 5721 5727 5731 5735 5739 5743 5746 5750 5754 5757 5760 5764 5768 5770 5773 5774 5776 5779 5781 5783 5785 5786 5789 5792 5796 5797 5798 5799 5801 5802 5802 5804 5804 5807 5813 5818 5819 5820 5822 5823 5822 5823 5823 5825 5828 5829 5829 5831 5833 5836 5838 5840 5841 5842 5843 5844
5627 5629 5632 5634 5637 5639 5642 5644 5646 5648 5650 5652 5655 5657 5659 5662 5664 5667 5670 5673 5676 5680 5684 5687 5691 5695 5698 5704 5705 5705 5709 5712 5716 5722 5726 5731 5736 5739 5743 5747 5751 5754 5757 5760 5763 5766 5768 5770 5773 5776 5778 5780 5782 5784 5786 5789 5792 5794 5796 5798 5800 5801 5802 5803 5803 5806 5813 5816 5818 5818 5820 5821 5821 5821 5821 5822 5825 5827 5828 5829 5832 5835 5836 5838 5839 5840 5842 5842
5616 5618 5621 5624 5627 5630 5633 5636 5639 5641 5644 5646 5648 5651 5653 5656 5658 5662 5665 5668 5671 5675 5678 5682 5686 5689 5694 5699 5698 5699 5705 5708 5712 5717 5721 5727 5731 5734 5738 5743 5747 5750 5753 5756 5759 5762 5764 5767 5770 5773 5775 5777 5779 5782 5784 5786 5788 5791 5793 5795 5797 5799 5802 5803 5803 5807 5812 5814 5815 5816 5818 5819 5818 5819 5819 5819 5822 5825 5827 5829 5830 5832 5834 5835 5837 5838 5839 5839
5604 5607 5610 5614 5617 5620 5624 5628 5631 5634 5637 5640 5642 5645 5647 5650 5653 5656 5659 5663 5666 5670 5673 5677 5681 5685 5690 5693 5692 5695 5701 5705 5709 5712 5717 5723 5727 5731 5734 5737 5742 5746 5750 5752 5755 5758 5761 5763 5767 5770 5772 5775 5776 5778 5781 5783 5786 5788 5790 5793 5794 5797 5801 5802 5804 5808 5811 5812 5813 5814 5815 5815 5815 5817 5817 5817 5820 5823 5825 5827 5829 5830 5831 5833 5834 5835 5835 5836
5591 5594 5598 5602 5606 5610 5614 5618 5622 5626 5629 5633 5636 5639 5642 5644 5647 5651 5654 5657 5661 5665 5668 5672 5677 5681 5684 5687 5688 5692 5697 5701 5704 5706 5713 5720 5724 5727 5730 5733 5738 5742 5746 5749 5752 5755 5757 5760 5763 5767 5769 5771 5773 5775 5778 5781 5784 5786 5788 5790 5792 5795 5800 5802 5804 5807 5808 5809 5811 5812 5813 5812 5812 5815 5815 5816 5818 5821 5823 5826 5828 5828 5829 5830 5831 5832 5833 5834
5577 5581 5586 5590 5595 5599 5604 5609 5613 5617 5622 5626 5629 5633 5636 5638 5641 5645 5648 5651 5655 5659 5664 5668 5672 5675 5678 5682 5685 5688 5692 5696 5699 5703 5710 5717 5720 5722 5726 5730 5733 5737 5742 5744 5747 5750 5753 5756 5760 5763 5765 5767 5770 5772 5774 5778 5782 5784 5786 5789 5791 5795 5798 5800 5803 5805 5806 5807 5809 5810 5810 5809 5811 5814 5814 5815 5817 5818 5821 5824 5826 5826 5827 5829 5829 5830 5831 5833
5561 5567 5572 5578 5583 5588 5593 5599 5604 5609 5613 5618 5622 5626 5629 5632 5635 5638 5642 5646 5649 5654 5659 5663 5667 5670 5673 5677 5680 5683 5686 5690 5693 5698 5705 5711 5715 5717 5721 5725 5728 5732 5735 5739 5742 5745 5748 5752 5756 5759 5761 5764 5766 5769 5773 5777 5781 5783 5785 5788 5791 5794 5797 5799 5801 5803 5805 5806 5806 5807 5807 5807 5809 5812 5813 5813 5813 5815 5818 5821 5822 5824 5826 5827 5827 5828 5830 5831
5546 5552 5558 5564 5570 5577 5582 5588 5594 5600 5605 5610 5615 5619 5623 5626 5629 5632 5636 5640 5645 5649 5653 5658 5662 5665 5668 5672 5675 5678 5681 5683 5687 5692 5699 5704 5708 5712 5715 5719 5722 5726 5730 5734 5737 5741 5744 5748 5751 5754 5757 5761 5764 5768 5773 5778 5780 5782 5784 5787 5790 5794 5796 5798 5800 5801 5802 5803 5803 5804 5806 5806 5808 5809 5810 5810 5810 5811 5814 5817 5820 5822 5824 5825 5825 5826 5828 5830
5532 5537 5543 5550 5557 5564 5570 5577 5585 5591 5597 5602 5607 5612 5616 5619 5623 5627 5631 5636 5639 5643 5647 5652 5657 5660 5663 5666 5670 5673 5676 5679 5683 5687 5692 5697 5702 5706 5708 5712 5717 5721 5725 5730 5734 5737 5741 5744 5748 5752 5757 5761 5764 5768 5773 5776 5778 5779 5782 5784 5788 5791 5793 5796 5798 5799 5800 5800 5801 5802 5804 5805 5805 5806 5808 5808 5809 5810 5813 5816 5818 5820 5822 5823 5824 5826 5828 5829
5520 5524 5530 5537 5544 5551 5559 5567 5575 5581 5588 5594 5599 5604 5608 5611 5616 5621 5626 5630 5634 5638 5643 5648 5653 5656 5659 5662 5666 5669 5672 5676 5680 5684 5689 5692 5696 5700 5703 5707 5712 5717 5722 5726 5730 5733 5736 5740 5745 5751 5756 5759 5762 5766 5770 5773 5775 5777 5779 5781 5783 5786 5789 5793 5796 5798 5797 5798 5799 5800 5802 5803 5803 5805 5806 5807 5809 5810 5813 5815 5817 5819 5820 5821 5823 5825 5826 5827
5509 5513 5518 5524 5531 5539 5548 5556 5564 5572 5579 5586 5591 5596 5599 5604 5610 5616 5621 5625 5629 5634 5638 5643 5649 5651 5654 5658 5662 5666 5669 5673 5676 5681 5686 5689 5692 5695 5698 5702 5707 5713 5719 5722 5725 5728 5731 5736 5743 5749 5753 5756 5758 5762 5767 5770 5772 5774 5776 5778 5780 5783 5785 5788 5792 5795 5794 5796 5798 5798 5800 5801 5803 5804 5805 5806 5808 5810 5812 5813 5815 5817 5818 5820 5823 5824 5825 5824
5500 5503 5508 5514 5521 5528 5536 5545 5553 5562 5570 5577 5583 5586 5591 5598 5606 5611 5616 5621 5625 5629 5633 5639 5643 5645 5649 5654 5658 5662 5666 5670 5674 5678 5682 5686 5689 5692 5695 5699 5704 5709 5714 5717 5721 5725 5727 5733 5740 5745 5748 5752 5755 5759 5763 5767 5769 5771 5773 5776 5779 5781 5782 5784 5789 5791 5792 5795 5796 5797 5798 5800 5802 5803 5804 5805 5807 5809 5810 5811 5813 5815 5817 5819 5821 5822 5823 5823
5492 5495 5500 5505 5512 5519 5526 5534 5543 5552 5561 5568 5573 5578 5586 5593 5600 5606 5612 5616 5621 5625 5629 5634 5638 5641 5645 5649 5654 5658 5662 5665 5670 5674 5679 5682 5686 5690 5693 5697 5701 5705 5710 5714 5719 5722 5725 5732 5738 5741 5745 5749 5753 5757 5760 5763 5766 5768 5771 5775 5778 5780 5780 5783 5786 5788 5790 5792 5794 5795 5797 5799 5800 5801 5802 5803 5805 5808 5809 5810 5811 5814 5816 5818 5819 5820 5821 5821
5487 5489 5494 5499 5505 5511 5518 5525 5533 5542 5552 5559 5565 5572 5581 5588 5594 5602 5607 5612 5617 5621 5624 5629 5633 5637 5639 5643 5650 5654 5657 5661 5665 5670 5674 5678 5683 5688 5691 5694 5698 5702 5707 5711 5715 5718 5722 5729 5735 5738 5743 5747 5750 5753 5757 5761 5764 5766 5770 5774 5778 5778 5779 5781 5783 5784 5786 5787 5789 5793 5796 5797 5797 5799 5800 5801 5803 5805 5807 5808 5810 5812 5815 5816 5817 5818 5819 5820
5483 5485 5489 5494 5500 5506 5512 5518 5525 5534 5544 5552 5559 5568 5576 5583 5591 5597 5602 5608 5613 5616 5619 5625 5629 5631 5634 5640 5647 5650 5653 5657 5662 5666 5670 5675 5680 5684 5688 5692 5697 5701 5704 5708 5711 5714 5719 5726 5731 5735 5740 5744 5746 5749 5754 5758 5761 5763 5769 5773 5776 5776 5776 5778 5779 5779 5782 5785 5788 5792 5793 5794 5796 5797 5799 5800 5801 5802 5804 5806 5808 5810 5812 5813 5815 5816 5817 5818
5481 5483 5486 5491 5497 5502 5507 5513 5520 5529 5538 5546 5554 5563 5571 5579 5586 5593 5599 5603 5609 5612 5615 5620 5625 5628 5632 5637 5642 5647 5651 5656 5659 5662 5667 5672 5676 5680 5684 5689 5694 5698 5702 5704 5707 5710 5715 5721 5727 5731 5736 5740 5742 5746 5751 5755 5757 5761 5767 5772 5773 5773 5774 5776 5776 5777 5780 5785 5789 5790 5790 5792 5794 5795 5797 5798 5798 5799 5801 5804 5806 5807 5809 5811 5813 5814 5815 5816
5481 5483 5486 5490 5494 5499 5505 5511 5516 5524 5532 5540 5549 5558 5566 5575 5582 5590 5595 5599 5605 5609 5612 5616 5621 5624 5628 5632 5637 5644 5649 5653 5656 5660 5664 5669 5674 5677 5680 5684 5690 5695 5699 5701 5703 5708 5712 5718 5724 5728 5731 5735 5739 5744 5750 5753 5756 5761 5766 5769 5770 5771 5771 5774 5775 5776 5778 5782 5784 5785 5787 5789 5791 5792 5794 5795 5795 5796 5798 5802 5804 5805 5807 5809 5810 5812 5813 5814
5483 5485 5487 5490 5494 5499 5505 5508 5513 5520 5528 5535 5545 5554 5562 5571 5578 5585 5590 5595 5601 5605 5607 5611 5616 5620 5623 5627 5634 5639 5643 5647 5652 5657 5662 5666 5670 5675 5678 5682 5686 5691 5695 5698 5701 5706 5711 5717 5722 5725 5729 5733 5738 5743 5747 5750 5755 5760 5763 5765 5767 5768 5769 5771 5773 5773 5775 5777 5779 5781 5784 5786 5787 5788 5790 5791 5792 5794 5797 5800 5802 5803 5805 5806 5807 5809 5810 5811
5485 5487 5489 5492 5497 5501 5505 5508 5512 5519 5525 5532 5541 5549 5558 5566 5574 5580 5585 5591 5597 5600 5603 5608 5613 5617 5620 5624 5631 5635 5638 5643 5647 5652 5657 5661 5666 5670 5675 5679 5684 5688 5692 5694 5697 5703 5709 5714 5718 5722 5726 5732 5736 5740 5744 5748 5753 5758 5760 5762 5764 5765 5767 5769 5770 5771 5772 5772 5775 5779 5782 5783 5784 5785 5787 5790 5792 5795 5797 5798 5799 5801 5803 5804 5804 5806 5807 5809
5488 5489 5492 5495 5499 5502 5505 5509 5513 5518 5523 5529 5537 5546 5554 5562 5570 5576 5582 5589 5594 5596 5600 5605 5609 5613 5617 5623 5629 5632 5636 5640 5643 5648 5651 5655 5660 5664 5668 5672 5678 5683 5687 5690 5694 5699 5704 5708 5713 5718 5723 5727 5731 5736 5741 5745 5749 5753 5755 5758 5761 5762 5765 5766 5766 5768 5767 5768 5773 5777 5780 5782 5782 5782 5785 5788 5791 5793 5795 5796 5797 5799 5800 5801 5802 5803 5805 5806
5491 5492 5495 5497 5499 5502 5505 5509 5513 5518 5522 5528 5536 5543 5552 5560 5567 5573 5579 5585 5589 5592 5596 5601 5606 5611 5615 5620 5626 5630 5635 5638 5640 5644 5648 5652 5655 5658 5663 5667 5672 5677 5680 5685 5690 5694 5700 5704 5709 5714 5718 5722 5727 5731 5735 5739 5743 5747 5750 5754 5756 5758 5761 5762 5762 5763 5764 5767 5771 5774 5777 5780 5779 5779 5783 5786 5788 5791 5792 5794 5795 5796 5797 5799 5800 5801 5803 5804
5493 5495 5496 5498 5500 5503 5506 5510 5514 5518 5522 5528 5535 5542 5550 5558 5564 5570 5576 5580 5585 5590 5594 5598 5603 5608 5612 5617 5623 5627 5631 5635 5638 5641 5646 5651 5654 5656 5660 5665 5670 5674 5677 5681 5686 5690 5696 5701 5704 5709 5713 5718 5722 5726 5729 5733 5737 5741 5744 5748 5751 5753 5756 5757 5759 5760 5762 5766 5768 5771 5775 5776 5775 5777 5781 5783 5786 5788 5789 5790 5792 5793 5795 5796 5797 5799 5800 5801
5495 5497 5498 5500 5502 5504 5507 5510 5514 5519 5523 5527 5534 5541 5549 5556 5562 5568 5573 5578 5584 5588 5592 5595 5599 5604 5609 5615 5620 5624 5628 5631 5635 5638 5643 5647 5651 5654 5658 5662 5667 5672 5676 5680 5684 5689 5693 5696 5699 5703 5708 5713 5718 5723 5728 5732 5736 5739 5742 5745 5748 5750 5753 5755 5757 5759 5761 5764 5765 5768 5771 5770 5770 5774 5777 5780 5783 5784 5785 5788 5789 5791 5792 5793 5794 5796 5798 5799
5497 5498 5499 5501 5503 5505 5508 5511 5516 5520 5524 5528 5535 5542 5549 5555 5561 5566 5572 5577 5581 5585 5590 5595 5598 5601 5606 5611 5616 5621 5626 5629 5632 5635 5639 5644 5648 5652 5656 5659 5663 5668 5672 5677 5682 5688 5691 5694 5698 5702 5706 5711 5715 5720 5725 5729 5733 5737 5740 5743 5745 5749 5752 5754 5756 5758 5760 5763 5764 5765 5765 5765 5767 5770 5773 5777 5779 5781 5783 5785 5787 5789 5790 5791 5792 5793 5795 5796
5497 5499 5500 5502 5504 5507 5510 5513 5517 5522 5525 5530 5537 5543 5550 5557 5561 5566 5570 5575 5580 5584 5589 5594 5597 5600 5603 5608 5612 5617 5622 5626 5629 5633 5637 5642 5647 5651 5655 5658 5662 5666 5670 5674 5679 5684 5688 5693 5698 5701 5705 5709 5713 5718 5721 5724 5728 5732 5736 5738 5742 5746 5749 5752 5754 5756 5758 5760 5761 5761 5761 5762 5764 5766 5767 5772 5775 5777 5781 5783 5785 5787 5788 5789 5790 5791 5792 5793
5498 5499 5500 5502 5505 5508 5512 5515 5519 5523 5527 5532 5539 5545 5552 5558 5562 5566 5569 5573 5579 5584 5588 5592 5596 5599 5602 5606 5611 5615 5618 5622 5626 5629 5633 5639 5644 5648 5653 5656 5661 5666 5670 5673 5678 5682 5686 5691 5695 5699 5703 5708 5712 5716 5719 5722 5726 5729 5732 5736 5739 5743 5746 5749 5751 5752 5754 5756 5757 5758 5758 5760 5762 5762 5762 5767 5772 5775 5778 5781 5783 5784 5785 5786 5787 5788 5789 5789
5499 5500 5502 5503 5506 5510 5514 5518 5521 5525 5529 5534 5539 5546 5553 5558 5562 5566 5569 5572 5578 5583 5587 5591 5594 5598 5602 5606 5610 5613 5617 5620 5623 5626 5630 5635 5641 5646 5650 5654 5658 5664 5669 5672 5676 5680 5685 5690 5694 5697 5700 5705 5709 5711 5714 5718 5722 5725 5729 5734 5737 5740 5743 5745 5746 5747 5750 5752 5753 5754 5755 5757 5759 5759 5760 5765 5770 5773 5776 5778 5780 5781 5782 5783 5783 5784 5785 5786
5501 5502 5504 5506 5509 5513 5517 5520 5523 5527 5531 5536 5542 5549 5554 5558 5562 5565 5568 5573 5578 5582 5586 5590 5593 5597 5600 5605 5609 5612 5616 5619 5622 5625 5629 5634 5640 5645 5648 5652 5656 5661 5666 5669 5674 5679 5683 5688 5692 5695 5698 5702 5705 5706 5708 5712 5716 5720 5724 5730 5735 5738 5740 5742 5743 5745 5747 5749 5750 5751 5751 5752 5755 5756 5759 5764 5766 5769 5772 5774 5776 5777 5778 5779 5780 5781 5782 5782
5504 5506 5508 5511 5514 5517 5520 5522 5525 5529 5534 5540 5545 5550 5554 5558 5562 5565 5569 5573 5577 5581 5585 5589 5593 5596 5599 5602 5606 5610 5614 5618 5621 5625 5628 5633 5638 5643 5647 5650 5654 5659 5664 5668 5672 5676 5680 5685 5689 5693 5696 5698 5699 5701 5705 5709 5713 5717 5720 5725 5730 5733 5736 5739 5741 5743 5745 5747 5748 5748 5747 5750 5753 5755 5758 5760 5762 5765 5767 5770 5772 5773 5774 5776 5777 5778 5778 5779
5510 5512 5514 5516 5518 5520 5522 5525 5528 5532 5536 5542 5547 5551 5555 5559 5562 5566 5571 5574 5577 5582 5586 5589 5592 5595 5597 5601 5604 5608 5612 5616 5619 5623 5626 5631 5636 5641 5645 5649 5653 5657 5661 5665 5669 5673 5677 5681 5686 5689 5691 5693 5695 5699 5705 5710 5714 5716 5719 5723 5727 5729 5732 5735 5737 5739 5742 5744 5746 5746 5747 5750 5753 5754 5756 5758 5760 5762 5764 5766 5768 5770 5771 5772 5773 5773 5774 5775
5516 5517 5518 5519 5520 5522 5524 5527 5530 5535 5539 5544 5548 5552 5556 5559 5563 5569 5573 5575 5578 5582 5586 5590 5592 5595 5597 5600 5603 5606 5610 5613 5617 5621 5624 5630 5636 5640 5644 5648 5651 5655 5659 5663 5668 5672 5675 5679 5684 5687 5689 5692 5696 5700 5706 5711 5713 5715 5718 5722 5726 5727 5729 5731 5733 5736 5739 5741 5743 5744 5746 5749 5750 5752 5753 5755 5757 5759 5761 5763 5764 5766 5767 5768 5768 5768 5769 5771
5521 5521 5521 5522 5524 5525 5528 5531 5535 5539 5543 5547 5552 5555 5558 5561 5566 5571 5574 5576 5578 5582 5586 5589 5592 5595 5598 5600 5603 5606 5609 5612 5615 5619 5623 5629 5635 5640 5643 5646 5649 5653 5657 5662 5667 5671 5673 5676 5681 5684 5688 5693 5697 5701 5705 5708 5710 5711 5714 5718 5722 5724 5726 5728 5732 5735 5737 5738 5740 5742 5744 5746 5748 5749 5751 5752 5754 5756 5758 5759 5761 5762 5763 5764 5763 5764 5765 5766
5524 5524 5525 5526 5528 5531 5534 5538 5541 5545 5548 5552 5555 5557 5560 5564 5568 5572 5575 5576 5579 5582 5586 5589 5591 5594 5597 5600 5604 5607 5609 5612 5615 5619 5623 5629 5634 5638 5641 5644 5647 5651 5655 5660 5665 5668 5671 5674 5678 5681 5685 5689 5692 5695 5699 5702 5704 5706 5710 5714 5718 5721 5723 5725 5729 5733 5734 5735 5737 5740 5741 5743 5746 5747 5748 5750 5752 5753 5755 5756 5757 5758 5759 5759 5759 5760 5762 5763
5528 5529 5530 5531 5534 5537 5540 5544 5546 5549 5552 5555 5556 5558 5562 5566 5570 5573 5575 5577 5580 5582 5585 5588 5591 5593 5597 5600 5604 5607 5609 5612 5615 5618 5622 5627 5632 5635 5638 5641 5645 5649 5655 5660 5664 5667 5671 5673 5676 5678 5680 5682 5685 5688 5692 5696 5699 5701 5706 5710 5715 5718 5720 5722 5726 5728 5730 5732 5734 5735 5737 5739 5742 5743 5745 5748 5750 5751 5752 5753 5754 5754 5755 5755 5755 5756 5758 5759
5535 5536 5537 5539 5542 5544 5547 5549 5551 5554 5555 5557 5559 5561 5564 5568 5570 5573 5575 5577 5580 5582 5585 5588 5591 5594 5596 5600 5603 5606 5609 5612 5614 5617 5621 5626 5630 5633 5636 5640 5644 5648 5654 5659 5663 5665 5669 5673 5675 5677 5680 5682 5685 5688 5692 5696 5697 5699 5703 5708 5712 5716 5718 5720 5722 5724 5726 5729 5730 5731 5732 5734 5737 5739 5742 5745 5747 5748 5749 5750 5750 5751 5751 5751 5752 5753 5754 5755
5543 5544 5545 5547 5549 5550 5552 5553 5555 5556 5557 5559 5562 5564 5566 5568 5570 5572 5575 5578 5581 5583 5586 5589 5592 5593 5596 5599 5602 5605 5608 5611 5614 5618 5622 5625 5628 5631 5635 5639 5643 5647 5651 5656 5660 5663 5667 5671 5674 5677 5679 5681 5684 5687 5691 5695 5697 5699 5703 5706 5710 5713 5715 5717 5719 5721 5723 5725 5725 5727 5729 5731 5734 5737 5739 5742 5743 5744 5745 5746 5747 5747 5748 5748 5750 5750 5751 5752
5550 5551 5552 5553 5554 5555 5556 5557 5558 5559 5560 5562 5565 5566 5568 5569 5570 5573 5577 5580 5583 5585 5587 5590 5592 5594 5596 5599 5602 5604 5608 5611 5615 5619 5622 5625 5628 5630 5633 5637 5641 5645 5649 5653 5657 5660 5665 5669 5672 5675 5677 5679 5681 5684 5688 5693 5696 5697 5700 5704 5708 5711 5712 5714 5716 5718 5720 5721 5723 5726 5727 5729 5732 5734 5736 5738 5739 5740 5741 5742 5743 5744 5745 5746 5747 5748 5748 5749
5557 5557 5558 5558 5559 5559 5560 5561 5562 5563 5565 5567 5568 5569 5570 5572 5574 5576 5579 5582 5584 5586 5588 5590 5592 5594 5596 5599 5602 5605 5609 5612 5615 5619 5621 5624 5627 5630 5632 5635 5638 5641 5645 5650 5654 5658 5663 5667 5669 5672 5674 5677 5679 5682 5685 5689 5693 5695 5697 5700 5704 5707 5709 5711 5713 5714 5717 5719 5722 5724 5725 5727 5728 5730 5733 5735 5735 5736 5737 5739 5740 5741 5742 5743 5744 5745 5745 5746
5562 5562 5562 5563 5563 5564 5564 5565 5566 5567 5569 5571 5571 5572 5573 5575 5577 5579 5581 5583 5584 5586 5589 5591 5593 5595 5598 5601 5603 5607 5610 5613 5616 5618 5621 5623 5626 5628 5630 5633 5635 5638 5642 5647 5652 5656 5661 5664 5667 5669 5672 5674 5677 5680 5683 5686 5690 5693 5695 5697 5701 5703 5706 5708 5709 5711 5714 5716 5718 5720 5721 5723 5724 5727 5729 5730 5731 5733 5734 5735 5737 5738 5740 5741 5741 5741 5742 5743
5566 5566 5566 5566 5567 5568 5568 5569 5570 5570 5572 5573 5574 5575 5577 5578 5580 5581 5583 5584 5585 5587 5589 5592 5594 5597 5600 5602 5605 5608 5611 5614 5617 5619 5621 5622 5625 5626 5628 5631 5634 5637 5641 5645 5649 5654 5658 5662 5664 5667 5669 5671 5675 5678 5680 5684 5687 5690 5693 5695 5698 5700 5702 5704 5706 5709 5711 5714 5715 5716 5718 5720 5722 5723 5725 5727 5728 5729 5730 5732 5734 5735 5737 5738 5738 5738 5739 5739
5570 5570 5570 5570 5570 5570 5571 5572 5572 5573 5574 5575 5576 5577 5579 5580 5581 5583 5584 5586 5587 5589 5591 5593 5595 5598 5601 5603 5606 5608 5611 5614 5617 5619 5621 5622 5624 5626 5628 5630 5633 5637 5640 5644 5647 5651 5656 5659 5662 5665 5667 5669 5672 5675 5678 5682 5685 5688 5690 5693 5695 5697 5699 5702 5704 5706 5708 5710 5711 5713 5715 5718 5719 5720 5722 5724 5725 5726 5727 5729 5730 5732 5734 5735 5735 5735 5735 5736